Weather History for South St. Paul, MN

Change the Weather History Date:

Wednesday, May 13, 2009

  Actual Average (KMSP) Record (KMSP)
Temperature  
Mean Temperature 62 °F 58 °F  
Max Temperature 71 °F 69 °F 92 °F (2007)
Min Temperature 54 °F 48 °F 29 °F (1953)
Degree Days  
Heating Degree Days 2 8  
Month to date heating degree days 120  
Since 1 July heating degree days 7438  
Cooling Degree Days 0 1  
Month to date cooling degree days 11  
Year to date cooling degree days 16  
Growing Degree Days 12 (Base 50)    
Moisture  
Dew Point 54 °F    
Average Humidity 77    
Maximum Humidity 97    
Minimum Humidity 28    
Precipitation  
Precipitation 0.17 in 0.10 in 0.98 in (1962)
Month to date precipitation 1.42  
Year to date precipitation 7.64  
Snow  
Snow 0.00 in 0.00 in T in (1902)
Month to date snowfall 0.0  
Since 1 July snowfall 54.4  
Snow Depth -    
Sea Level Pressure  
Sea Level Pressure 29.57 in    
Wind  
Wind Speed 12 mph (SSW)    
Max Wind Speed 24 mph    
Max Gust Speed 32 mph    
Visibility 9 miles    
Events Rain , Thunderstorm    
T = Trace of Precipitation, MM = Missing Value Source: NWS Daily Summary

Daily Weather History Graph

Daily Weather History Graph

Search for Another Location

Airport:

Trip Planner

Search our weather history database for the weather conditions in past years. The results will help you decide how hot, cold, wet, or windy it might be!

Date:

Astronomy

May. 13, 2009 Rise Set
Actual Time 5:45 AM CDT 8:32 PM CDT
Civil Twilight 5:11 AM CDT 9:06 PM CDT
Nautical Twilight 4:28 AM CDT 9:49 PM CDT
Astronomical Twilight 3:39 AM CDT 10:39 PM CDT
Moon 12:15 AM CDT (5/13) 8:51 AM CDT (5/13)
Length of Visible Light 15h 54m
Length of Day
14h 46m
Waning Gibbous, 82% of the Moon is Illuminated
May 13
Waning Gibbous
May 17
Last Quarter
May 24
New
May 30
First Quarter
Jun 7
Full

Hourly Weather History & Observations

Time (CDT) Temp. Dew Point Humidity Pressure Visibility Wind Dir Wind Speed Gust Speed Precip Events Conditions
12:15 AM 60.4 °F 50.9 °F 71% 29.67 in 10.0 mi SSE 16.1 mph 25.3 mph N/A   Mostly Cloudy
12:35 AM 60.1 °F 50.9 °F 72% 29.66 in 10.0 mi SSE 15.0 mph 25.3 mph N/A   Overcast
12:54 AM 59.9 °F 51.3 °F 73% 29.65 in 10.0 mi South 17.3 mph 25.3 mph N/A   Overcast
1:15 AM 59.5 °F 51.8 °F 76% 29.67 in 10.0 mi South 11.5 mph 19.6 mph N/A   Mostly Cloudy
1:35 AM 59.9 °F 51.8 °F 75% 29.66 in 10.0 mi South 10.4 mph 18.4 mph N/A   Overcast
1:54 AM 57.9 °F 52.3 °F 82% 29.66 in 5.0 mi South 11.5 mph 23.0 mph N/A Rain Rain
2:14 AM 57.0 °F 52.9 °F 86% 29.66 in 10.0 mi SSE 11.5 mph 24.2 mph N/A   Overcast
2:35 AM 57.4 °F 52.5 °F 84% 29.66 in 10.0 mi SSE 15.0 mph 26.5 mph N/A   Overcast
2:54 AM 55.4 °F 53.8 °F 94% 29.65 in 4.0 mi SSE 11.5 mph - N/A   Overcast
3:14 AM 55.4 °F 54.0 °F 95% 29.64 in 4.0 mi SSE 10.4 mph 18.4 mph N/A   Overcast
3:35 AM 55.0 °F 54.0 °F 96% 29.61 in 5.0 mi SSE 8.1 mph 21.9 mph N/A   Overcast
3:54 AM 54.9 °F 53.8 °F 96% 29.61 in 7.0 mi SSE 13.8 mph 21.9 mph N/A   Overcast
4:14 AM 55.0 °F 54.0 °F 96% 29.61 in 10.0 mi South 11.5 mph 17.3 mph N/A   Overcast
4:35 AM 55.4 °F 54.1 °F 96% 29.61 in 10.0 mi South 10.4 mph 18.4 mph N/A   Overcast
4:54 AM 55.4 °F 54.3 °F 96% 29.61 in 7.0 mi South 16.1 mph 23.0 mph N/A   Overcast
5:14 AM 55.4 °F 54.5 °F 97% 29.60 in 5.0 mi South 13.8 mph 20.7 mph N/A   Overcast
5:35 AM 55.4 °F 54.5 °F 97% 29.59 in 7.0 mi SSE 13.8 mph 21.9 mph N/A   Overcast
5:54 AM 55.6 °F 54.5 °F 96% 29.58 in 10.0 mi South 13.8 mph 23.0 mph N/A   Overcast
6:35 AM 56.3 °F 55.0 °F 96% 29.59 in 10.0 mi South 18.4 mph 27.6 mph N/A   Overcast
6:54 AM 56.3 °F 55.0 °F 96% 29.57 in 10.0 mi South 11.5 mph 23.0 mph N/A   Overcast
7:14 AM 56.3 °F 55.4 °F 97% 29.55 in 10.0 mi South 15.0 mph 21.9 mph N/A   Overcast
7:34 AM 57.4 °F 56.3 °F 96% 29.57 in 10.0 mi South 13.8 mph 20.7 mph N/A   Overcast
7:54 AM 58.6 °F 55.8 °F 90% 29.58 in 10.0 mi SSW 11.5 mph 19.6 mph N/A   Overcast
8:14 AM 59.0 °F 55.9 °F 90% 29.58 in 10.0 mi SSW 10.4 mph 17.3 mph N/A   Overcast
8:35 AM 59.4 °F 56.3 °F 90% 29.57 in 10.0 mi South 11.5 mph - N/A   Overcast
8:54 AM 59.9 °F 56.7 °F 89% 29.56 in 10.0 mi South 9.2 mph - N/A   Overcast
9:14 AM 60.3 °F 57.0 °F 89% 29.56 in 10.0 mi South 10.4 mph - N/A   Overcast
9:34 AM 61.2 °F 57.6 °F 88% 29.55 in 10.0 mi South 12.7 mph - N/A   Overcast
9:54 AM 62.6 °F 58.3 °F 86% 29.55 in 10.0 mi South 10.4 mph - N/A   Scattered Clouds
10:14 AM 63.5 °F 58.6 °F 84% 29.55 in 10.0 mi South 9.2 mph - N/A   Mostly Cloudy
10:34 AM 64.6 °F 59.2 °F 83% 29.54 in 10.0 mi SSW 9.2 mph - N/A   Mostly Cloudy
10:54 AM 65.3 °F 59.0 °F 80% 29.54 in 10.0 mi SSW 8.1 mph - N/A   Mostly Cloudy
11:14 AM 66.4 °F 59.4 °F 78% 29.54 in 10.0 mi SW 6.9 mph - N/A   Scattered Clouds
11:31 AM 67.1 °F 59.4 °F 76% 29.54 in 10.0 mi SSW 8.1 mph - N/A   Mostly Cloudy
12:05 PM 68.9 °F 57.6 °F 67% 29.54 in 10.0 mi WSW 9.2 mph - N/A   Scattered Clouds
12:14 PM 69.1 °F 57.6 °F 67% 29.54 in 10.0 mi WSW 6.9 mph - N/A   Scattered Clouds
12:34 PM 71.2 °F 57.4 °F 61% 29.53 in 10.0 mi WSW 9.2 mph - N/A   Clear
12:54 PM 70.7 °F 57.0 °F 62% 29.52 in 10.0 mi SW 8.1 mph - N/A   Scattered Clouds
1:14 PM 70.9 °F 56.8 °F 61% 29.52 in 10.0 mi SSW 9.2 mph - N/A   Scattered Clouds
1:34 PM 70.2 °F 55.4 °F 59% 29.54 in 10.0 mi SW 12.7 mph - N/A   Scattered Clouds
1:54 PM 61.2 °F 59.5 °F 94% 29.57 in 2.5 mi WSW 10.4 mph 19.6 mph 0.16 in Rain Rain
2:14 PM 60.8 °F 59.5 °F 96% 29.56 in 7.0 mi West 9.2 mph - 0.01 in Rain , Thunderstorm Light Thunderstorms and Rain
2:34 PM 61.0 °F 59.9 °F 96% 29.55 in 10.0 mi West 4.6 mph - 0.01 in   Scattered Clouds
2:54 PM 60.3 °F 59.2 °F 96% 29.55 in 10.0 mi West 8.1 mph - 0.01 in   Scattered Clouds
3:14 PM 63.9 °F 58.1 °F 81% 29.54 in 10.0 mi SW 5.8 mph - N/A   Scattered Clouds
3:34 PM 67.6 °F 52.5 °F 58% 29.54 in 10.0 mi SW 6.9 mph - N/A   Scattered Clouds
3:54 PM 68.4 °F 51.4 °F 55% 29.54 in 10.0 mi WSW 9.2 mph - N/A   Scattered Clouds
4:14 PM 68.9 °F 48.7 °F 49% 29.54 in 10.0 mi WSW 10.4 mph - N/A   Scattered Clouds
4:34 PM 68.4 °F 49.1 °F 50% 29.53 in 10.0 mi WSW 10.4 mph 16.1 mph N/A   Scattered Clouds
4:54 PM 68.9 °F 50.4 °F 52% 29.52 in 10.0 mi West 10.4 mph 16.1 mph N/A   Clear
5:14 PM 68.7 °F 50.9 °F 53% 29.50 in 10.0 mi West 8.1 mph 18.4 mph N/A   Clear
5:35 PM 69.1 °F 47.5 °F 46% 29.51 in 10.0 mi West 9.2 mph - N/A   Clear
5:54 PM 69.1 °F 47.1 °F 45% 29.51 in 10.0 mi WSW 6.9 mph - N/A   Clear
6:14 PM 69.1 °F 48.6 °F 48% 29.50 in 10.0 mi WSW 5.8 mph - N/A   Clear
6:35 PM 69.8 °F 42.3 °F 37% 29.49 in 10.0 mi WNW 11.5 mph 16.1 mph N/A   Clear
6:54 PM 70.2 °F 37.6 °F 30% 29.51 in 10.0 mi WNW 20.7 mph 28.8 mph N/A   Clear
7:14 PM 69.8 °F 35.6 °F 28% 29.52 in 10.0 mi WNW 24.2 mph 32.2 mph N/A   Clear
7:34 PM 69.6 °F 35.8 °F 29% 29.52 in 10.0 mi WNW 23.0 mph 38.0 mph N/A   Clear
7:54 PM 67.1 °F 33.3 °F 29% 29.55 in 10.0 mi WNW 21.9 mph 29.9 mph N/A   Clear
8:14 PM 65.3 °F 31.6 °F 28% 29.56 in 10.0 mi West 18.4 mph 33.4 mph N/A   Clear
8:34 PM 64.8 °F 31.1 °F 28% 29.56 in 10.0 mi WNW 16.1 mph 28.8 mph N/A   Scattered Clouds
8:55 PM 63.9 °F 28.4 °F 26% 29.57 in 10.0 mi WNW 23.0 mph 33.4 mph N/A   Clear
9:14 PM 62.6 °F 28.0 °F 27% 29.57 in 10.0 mi WNW 17.3 mph 27.6 mph N/A   Clear
9:35 PM 61.9 °F 28.0 °F 28% 29.58 in 10.0 mi WNW 13.8 mph 25.3 mph N/A   Clear
9:55 PM 60.4 °F 28.8 °F 30% 29.60 in 10.0 mi WNW 13.8 mph 31.1 mph N/A   Clear
10:14 PM 60.1 °F 28.6 °F 30% 29.61 in 10.0 mi WNW 16.1 mph 26.5 mph N/A   Clear
10:35 PM 59.0 °F 29.7 °F 33% 29.61 in 10.0 mi WNW 15.0 mph 19.6 mph N/A   Clear
10:54 PM 58.3 °F 30.4 °F 35% 29.62 in 10.0 mi West 10.4 mph 19.6 mph N/A   Clear
11:14 PM 57.6 °F 31.3 °F 37% 29.64 in 10.0 mi West 6.9 mph - N/A   Clear
11:35 PM 56.5 °F 31.8 °F 39% 29.64 in 10.0 mi West 5.8 mph - N/A   Clear
11:55 PM 54.9 °F 32.4 °F 42% 29.65 in 10.0 mi WSW 5.8 mph - N/A   Clear